Location: Unspecified
(48.2082°N, 0.0000°E)
Time: 00:42:19
(UTC+00:00)

Vanguard 1 - Pass Details

Date: 04 July 2019
Orbit: 655 x 3829 km, 34.2° (Epoch: 17 August)

Event Time Altitude Azimuth Distance (km) Brightness Sun altitude
Rises 02:45:36 0° 264° (W) 7,956 14.3 -10.2°
Reaches altitude 10° 02:51:33 10° 259° (W) 6,805 13.9 -9.6°
Maximum altitude 03:11:10 47° 196° (SSW) 3,453 12.5 -7.5°
Drops below altitude 10° 03:23:20 10° 127° (SE) 4,368 13.5 -6.1°
Sets 03:26:13 0° 121° (ESE) 5,017 13.9 -5.8°
